COSMOS 2491 DEB, 44912

Orbit data source: Space-Track

COSMOS 2491 DEB, 44912 is space debris in LEO originally from a launch on Wed, 25 Dec 2013 UTC launched from the Plesetsk Missile And Space Complex (PKMTR). Debris objects in space refer to the collection of defunct objects orbiting the Earth. Examples of debris include non-operational satellites, rocket bodies, and fragments generated from explosions, collisions, or faulty payload assembly.

Loading next visibility...
Identifier
44912, 2013-076F
Orbit
LEO
Country
Flag of CISCIS
Related business
Manufacturer
TsNIIKhM
Mission
Spacecraft
Bus & Motor
Unknown
Mass
Unknown
Launch date (UTC)
2013-12-25 (12 years ago)
Launch vehicle
Unknown
Launch site
Plesetsk Missile And Space Complex (PKMTR)
Object type
Payload
Rocket body
Debris
Shape & HBR
Unknown shape, 0.1 m
Radar Cross Section
Small (<0.1 m²)

Expand to show TLE details & history
Last TLE update: 1 day ago

TLE from 1 day ago
0 COSMOS 2491 DEB
1 44912U 13076F   26100.37834816  .00004989  00000-0  22232-1 0  9998
2 44912  82.4638 149.9475 0094247 247.4236 111.6871 12.77543070289231
Epoch: 2026-04-10T09:04Z
TLE epoch observation values (Epoch: 2026-04-10T09:04:49.281Z)
Latitude
0.00005°
Longitude
175.1293°
Altitude
1,381.628 km
Speed
7.156 km/s
True Right ascension
09h 59m 47s
True Declination
0° 00' 00"
Sunlit
Object was in full shadow at epoch
Visualization orbit readout
Latitude
Unknown
Longitude
Unknown
Altitude
Unknown
Speed
Unknown
Apparent Right ascension
Unknown
Apparent Declination
Unknown
Sunlit
N/A
Visualization observer readout
Local Sidereal Time
17:19:16
Azimuth
Unknown
Elevation
Unknown
Doppler factor
Unknown
Orbital elements
Apogee altitude
1,421.49 km
Perigee altitude
1,275.845 km
Semi-major axis
7,726.804 km
Eccentricity
0.00942
Inclination
82.4638°
RAAN
149.9475°
Arg. of periapsis
247.4236°
True anomaly
112.68624°
Mean anomaly
111.6871°
Eccentric anomaly
112.18711°
Mean motion
3.19553 °/min
Orbital period
112.66 mins
BSTAR
0.022232
Loading maneuver chart data...
Computing Atmospheric mass density...
Loading historical data...
Loading historical data...
Loading historical data...
Loading historical data...
Loading historical data...
Loading historical data...
Loading historical data...

Documentation

Showing up to 5 results
|